GW6810 Weather Reports


time (UTC)temp
C
wind
direction
speed
KPH
gust
KPH
rain 1hr
cm
rain 24hr
cm
rain mn
cm
humidity
%
barometer
mb
20260504000030 15 0 1.6 9.7 0.00 0.00 0.00 39 1015.9
20260503235509 15 313 3.2 9.7 0.00 0.00 0.00 38 1015.9
20260503235009 15 322 6.4 9.7 0.00 0.00 0.00 38 1015.8
20260503234529 15 335 3.2 6.4 0.00 0.00 0.00 37 1015.9
20260503234009 15 290 0.0 9.7 0.00 0.00 0.00 37 1015.9
20260503233510 15 322 3.2 9.7 0.00 0.00 0.00 36 1015.8
20260503233029 16 316 3.2 9.7 0.00 0.00 0.00 37 1015.7
20260503232513 15 309 3.2 9.7 0.00 0.00 0.00 36 1015.6
20260503232011 16 309 4.8 9.7 0.00 0.00 0.00 36 1015.7
20260503231530 16 292 1.6 8.0 0.00 0.00 0.00 38 1015.7
20260503231013 16 0 0.0 8.0 0.00 0.00 0.00 35 1015.7
20260503230511 16 296 1.6 9.7 0.00 0.00 0.00 35 1015.8
20260503230028 16 314 4.8 11.3 0.00 0.00 0.00 37 1015.7
20260503225510 16 319 8.0 12.9 0.00 0.00 0.00 35 1015.7
20260503225010 16 315 6.4 14.5 0.00 0.00 0.00 34 1015.8
20260503224528 16 335 9.7 16.1 0.00 0.00 0.00 36 1015.7
20260503224011 16 12 8.0 17.7 0.00 0.00 0.00 34 1015.8
20260503223512 16 321 11.3 19.3 0.00 0.00 0.00 33 1015.8
20260503223028 16 307 11.3 19.3 0.00 0.00 0.00 35 1015.8
20260503222512 16 315 8.0 19.3 0.00 0.00 0.00 34 1015.8
20260503222012 16 309 8.0 17.7 0.00 0.00 0.00 33 1015.8
20260503221532 16 334 12.9 17.7 0.00 0.00 0.00 33 1015.8
20260503221011 16 325 11.3 20.9 0.00 0.00 0.00 33 1015.9
20260503220512 16 5 11.3 20.9 0.00 0.00 0.00 33 1015.8
20260503220034 16 309 6.4 19.3 0.00 0.00 0.00 33 1015.7
20260503215510 16 312 3.2 19.3 0.00 0.00 0.00 32 1015.6
20260503215011 16 331 11.3 20.9 0.00 0.00 0.00 32 1015.8
20260503214536 16 314 11.3 24.1 0.00 0.00 0.00 34 1015.8
20260503214009 16 306 8.0 24.1 0.00 0.00 0.00 33 1015.8
20260503213512 16 325 14.5 24.1 0.00 0.00 0.00 32 1015.8
20260503213033 16 309 6.4 19.3 0.00 0.00 0.00 34 1015.8
20260503212511 16 302 9.7 20.9 0.00 0.00 0.00 33 1015.8
20260503212015 16 331 11.3 20.9 0.00 0.00 0.00 33 1015.8
20260503211528 16 309 14.5 20.9 0.00 0.00 0.00 32 1015.8
20260503211010 16 335 11.3 25.7 0.00 0.00 0.00 34 1015.8
20260503210510 16 327 14.5 25.7 0.00 0.00 0.00 32 1015.6
20260503210027 16 329 11.3 19.3 0.00 0.00 0.00 33 1015.7
20260503205517 16 0 9.7 19.3 0.00 0.00 0.00 33 1015.8
20260503205013 16 310 12.9 20.9 0.00 0.00 0.00 33 1015.8
20260503204530 16 316 11.3 20.9 0.00 0.00 0.00 33 1015.7
20260503204009 16 328 11.3 24.1 0.00 0.00 0.00 34 1015.5
20260503203513 16 325 8.0 24.1 0.00 0.00 0.00 33 1015.6
20260503203029 16 338 12.9 22.5 0.00 0.00 0.00 32 1015.7
20260503202516 16 327 9.7 19.3 0.00 0.00 0.00 34 1015.7
20260503202013 15 313 8.0 25.7 0.00 0.00 0.00 34 1015.7
20260503201528 15 22 14.5 25.7 0.00 0.00 0.00 33 1015.8
20260503201025 15 300 12.9 27.4 0.00 0.00 0.00 34 1015.8
20260503200513 15 329 17.7 27.4 0.00 0.00 0.00 34 1015.8
20260503200028 15 348 12.9 30.6 0.00 0.00 0.00 33 1015.9
20260503195513 15 291 14.5 30.6 0.00 0.00 0.00 35 1015.9
20260503195013 15 316 22.5 30.6 0.00 0.00 0.00 35 1015.8
20260503194534 15 333 14.5 25.7 0.00 0.00 0.00 33 1016.0
20260503194014 15 15 14.5 25.7 0.00 0.00 0.00 36 1016.0
20260503193512 15 309 12.9 22.5 0.00 0.00 0.00 36 1016.2
20260503193030 15 314 12.9 27.4 0.00 0.00 0.00 36 1016.2
20260503192514 15 304 11.3 27.4 0.00 0.00 0.00 37 1016.4
20260503192013 15 334 14.5 27.4 0.00 0.00 0.00 37 1016.4
20260503191531 15 327 16.1 27.4 0.00 0.00 0.00 36 1016.5
20260503191014 15 289 12.9 25.7 0.00 0.00 0.00 38 1016.6
20260503190513 14 333 16.1 27.4 0.00 0.00 0.00 36 1016.6
20260503190038 14 327 16.1 27.4 0.00 0.00 0.00 38 1016.8
20260503185514 14 288 17.7 27.4 0.00 0.00 0.00 38 1016.7
20260503185016 14 321 16.1 27.4 0.00 0.00 0.00 39 1016.8
20260503184530 14 327 16.1 27.4 0.00 0.00 0.00 39 1016.9
20260503184014 14 302 16.1 29.0 0.00 0.00 0.00 39 1016.9
20260503183512 14 302 12.9 32.2 0.00 0.00 0.00 37 1016.8
20260503183036 14 317 19.3 32.2 0.00 0.00 0.00 38 1016.9
20260503182513 14 300 14.5 27.4 0.00 0.00 0.00 40 1017.1
20260503182011 14 297 14.5 25.7 0.00 0.00 0.00 39 1017.0
20260503181549 13 314 14.5 25.7 0.00 0.00 0.00 42 1016.9
20260503181014 13 329 17.7 25.7 0.00 0.00 0.00 39 1016.9
20260503180513 13 251 12.9 27.4 0.00 0.00 0.00 40 1017.1
20260503180041 13 317 16.1 27.4 0.00 0.00 0.00 41 1017.0
20260503175516 13 326 17.7 30.6 0.00 0.00 0.00 39 1016.9
20260503175010 13 340 14.5 33.8 0.00 0.00 0.00 40 1016.8
20260503174529 13 304 20.9 33.8 0.00 0.00 0.00 41 1016.9
20260503174015 13 340 11.3 33.8 0.00 0.00 0.00 39 1017.0
20260503173511 13 34 19.3 33.8 0.00 0.00 0.00 41 1017.1
20260503173031 13 18 19.3 29.0 0.00 0.00 0.00 41 1017.3
20260503172511 13 333 14.5 33.8 0.00 0.00 0.00 43 1017.1
20260503172011 13 311 19.3 33.8 0.00 0.00 0.00 41 1017.1
20260503171530 13 272 19.3 37.0 0.00 0.00 0.00 44 1017.2
20260503171014 12 316 14.5 37.0 0.00 0.00 0.00 43 1017.3
20260503170512 12 348 20.9 37.0 0.00 0.00 0.00 42 1017.3
20260503151008 11 319 24.1 45.1 0.00 0.03 0.00 45 1017.8
20260503150510 11 300 25.7 40.2 0.00 0.03 0.00 45 1017.9
20260503131010 10 340 20.9 40.2 0.00 0.03 0.00 49 1017.4
20260503130510 10 350 22.5 40.2 0.00 0.03 0.00 48 1017.3
20260503110521 10 298 19.3 40.2 0.00 0.03 0.00 49 1015.8
20260503090512 11 316 8.0 22.5 0.00 0.03 0.00 61 1013.7
20260503081529 12 344 11.3 22.5 0.00 0.03 0.00 60 1013.1
20260503081014 12 341 11.3 25.7 0.00 0.03 0.00 60 1013.0
20260503080511 12 5 12.9 25.7 0.00 0.03 0.00 59 1012.9
20260503072512 12 327 9.7 19.3 0.00 0.03 0.00 61 1012.4
20260503072013 12 335 4.8 17.7 0.00 0.03 0.00 66 1012.4
20260503071527 11 323 4.8 17.7 0.00 0.03 0.00 67 1012.3
20260503071012 11 322 8.0 17.7 0.00 0.03 0.00 69 1012.2
20260503070511 11 323 4.8 14.5 0.00 0.03 0.00 71 1012.2
20260503055011 12 318 8.0 17.7 0.00 0.03 0.00 60 1011.7
20260503054537 12 329 8.0 17.7 0.00 0.03 0.00 59 1011.7
20260503054012 12 311 6.4 14.5 0.00 0.03 0.00 59 1011.8
20260503053512 12 311 4.8 16.1 0.00 0.03 0.00 59 1011.8
20260503053030 12 328 4.8 16.1 0.00 0.03 0.00 59 1011.9
20260503052510 12 10 6.4 12.9 0.00 0.03 0.00 57 1011.9
20260503052012 12 336 6.4 12.9 0.00 0.03 0.00 57 1012.0
20260503051527 12 329 6.4 14.5 0.00 0.03 0.00 56 1012.0
20260503051012 12 329 6.4 14.5 0.00 0.03 0.00 57 1012.1
20260503050513 12 329 6.4 16.1 0.00 0.03 0.00 57 1012.0
20260503050030 12 346 8.0 16.1 0.00 0.03 0.00 57 1011.9
20260503045516 12 318 8.0 16.1 0.00 0.03 0.00 57 1012.0
20260503045012 13 341 6.4 16.1 0.00 0.03 0.00 56 1012.0
20260503044531 13 329 8.0 16.1 0.00 0.03 0.00 57 1012.0
20260503044012 13 333 9.7 16.1 0.00 0.03 0.00 56 1012.0
20260503043511 13 319 8.0 17.7 0.00 0.03 0.00 56 1012.1
20260503043030 13 338 11.3 17.7 0.00 0.03 0.00 55 1012.0
20260503042514 13 333 9.7 17.7 0.00 0.03 0.00 56 1012.1
20260503042010 13 292 8.0 14.5 0.00 0.03 0.00 55 1012.0
20260503041530 13 320 8.0 20.9 0.00 0.03 0.00 56 1012.1
20260503041009 13 360 8.0 20.9 0.00 0.03 0.00 54 1012.1
20260503040519 13 327 11.3 20.9 0.00 0.03 0.00 56 1012.1
20260503040032 13 19 11.3 17.7 0.00 0.03 0.00 55 1012.0
20260503035510 13 325 6.4 14.5 0.00 0.03 0.03 56 1012.2
20260503035010 13 312 9.7 17.7 0.00 0.03 0.03 56 1012.1
20260503034528 13 306 8.0 17.7 0.00 0.03 0.03 59 1012.1
20260503034011 13 325 11.3 17.7 0.00 0.03 0.03 57 1012.2
20260503033511 13 315 4.8 16.1 0.00 0.03 0.03 61 1012.1
20260503033031 13 337 4.8 16.1 0.00 0.03 0.03 60 1012.1
20260503032513 13 332 6.4 11.3 0.00 0.03 0.03 59 1012.0
20260503032010 13 348 3.2 14.5 0.00 0.03 0.03 60 1011.9
20260503031531 13 342 4.8 14.5 0.00 0.03 0.03 60 1011.8
20260503031013 13 336 4.8 14.5 0.00 0.03 0.03 58 1011.7
20260503030511 13 39 4.8 16.1 0.00 0.03 0.03 59 1011.8
20260503030033 13 325 6.4 16.1 0.00 0.03 0.03 59 1011.9
20260503025510 13 351 8.0 14.5 0.00 0.03 0.03 59 1011.9
20260503025010 13 11 6.4 14.5 0.00 0.03 0.03 58 1012.1
20260503024531 13 38 8.0 14.5 0.00 0.03 0.03 59 1012.1
20260503024010 13 336 6.4 14.5 0.00 0.03 0.03 58 1012.1
20260503023512 13 314 6.4 14.5 0.00 0.03 0.03 58 1012.2
20260503023029 13 317 4.8 12.9 0.00 0.03 0.03 58 1012.2
20260503022512 13 314 6.4 12.9 0.00 0.03 0.03 57 1012.1
20260503022012 13 34 4.8 12.9 0.00 0.03 0.03 57 1012.1
20260503021528 13 319 6.4 14.5 0.00 0.03 0.03 59 1012.0
20260503021014 13 326 6.4 20.9 0.00 0.03 0.03 56 1012.1
20260503020512 13 313 11.3 20.9 0.00 0.03 0.03 56 1012.1
20260503020030 13 5 8.0 16.1 0.00 0.03 0.03 55 1012.1
20260503015514 13 324 6.4 16.1 0.00 0.03 0.03 57 1012.1
20260503015010 13 331 8.0 16.1 0.00 0.03 0.03 55 1012.1
20260503014531 13 346 8.0 14.5 0.00 0.03 0.03 56 1012.1
20260503014013 13 360 8.0 14.5 0.00 0.03 0.03 55 1012.1
20260503013512 13 325 8.0 14.5 0.00 0.03 0.03 55 1012.0
20260503013029 13 32 4.8 14.5 0.00 0.03 0.03 56 1012.0
20260503012512 13 326 6.4 14.5 0.00 0.03 0.03 54 1011.8
20260503012013 13 332 4.8 16.1 0.00 0.03 0.03 54 1011.8
20260503011534 13 48 6.4 16.1 0.00 0.03 0.03 54 1011.6
20260503011016 13 350 9.7 16.1 0.00 0.03 0.03 53 1011.5
20260503010511 13 64 4.8 16.1 0.00 0.03 0.03 54 1011.6
20260503010033 13 335 6.4 14.5 0.00 0.03 0.03 53 1011.7
20260503005512 13 9 6.4 14.5 0.00 0.03 0.03 53 1011.8
20260503005014 13 329 6.4 16.1 0.00 0.03 0.03 53 1011.7
20260503004529 13 344 4.8 16.1 0.00 0.03 0.03 53 1011.6
20260503004013 13 347 8.0 16.1 0.00 0.03 0.03 53 1011.5
20260503003513 13 24 6.4 16.1 0.00 0.03 0.03 55 1011.4
20260503003028 13 37 6.4 17.7 0.00 0.03 0.03 56 1011.4
20260503002510 13 15 4.8 17.7 0.00 0.03 0.03 56 1011.5
20260503002012 13 57 9.7 19.3 0.00 0.03 0.03 55 1011.3
20260503001530 13 351 4.8 20.9 0.00 0.03 0.03 55 1011.2
20260503001012 13 28 9.7 25.7 0.00 0.03 0.03 55 1011.1
20260503000514 13 36 11.3 25.7 0.00 0.03 0.03 53 1011.1